Weather Roundup
Issued by NWS Corpus Christi, TX

Home | Current Version | Previous Version | Text Only | Print | Product List | Glossary On
Versions: 1 2 3 4 5 6 7 8 9 10 11 12 13 14 15 16 17 18 19 20 21 22 23 24 25 26 27 28 29 30 31 32 33 34 35 36 37 38 39 40 41 42 43 44 45 46 47 48 49 50
000
ASUS44 KCRP 230710
HRRCRP

SOUTH TEXAS REGIONAL WEATHER ROUNDUP
NATIONAL WEATHER SERVICE CORPUS CHRISTI TX
200 AM CDT SUN SEP 23 2018


TXZ229>244-230800-
...CORPUS CHRISTI AREA OBSERVATIONS...

CITY           SKY/WX    TMP DP  RH WIND       PRES   REMARKS
CORPUS CHRISTI MOCLDY    75  68  78 N7        29.93F
NAS CORPUS CHR CLOUDY    79  71  76 N14       29.92F
ROCKPORT       MOCLDY    75  67  76 NW13      29.92F
KINGSVILLE ARP CLOUDY    74  73  97 CALM      29.95F
KINGSVILLE NAS CLOUDY    75  70  84 NW7       29.94S
ALICE          MOCLDY    73  68  84 NW7       29.94F
$$

...VICTORIA AREA OBSERVATIONS...

CITY           SKY/WX    TMP DP  RH WIND       PRES   REMARKS
PORT LAVACA    NOT AVBL
VICTORIA       CLOUDY    72  65  78 NW7       29.93F
BEEVILLE       FAIR      69  66  90 CALM      29.95F
PLEASANTON     CLOUDY    70  63  78 NW5       29.97F
SAN ANTONIO    MOCLDY    66  61  84 W6        29.97F
$$

...LAREDO AREA OBSERVATIONS...

CITY           SKY/WX    TMP DP  RH WIND       PRES   REMARKS
LAREDO         CLEAR     70  66  87 NW5       29.99F
COTULLA        CLEAR     68  66  93 NW3       29.97F
DEL RIO        CLOUDY    70  66  87 SW3       30.01S
MCALLEN        CLOUDY    81  70  69 N8        29.96S
HEBBRONVILLE   CLOUDY    71  65  80 CALM      29.98F
$$

...OTHER TEXAS OBSERVATIONS...

CITY           SKY/WX    TMP DP  RH WIND       PRES   REMARKS
BROWNSVILLE    MOCLDY    79  77  94 NW6       29.94F
HOUSTON        MOCLDY    74  74 100 W8        29.88F
COL. STATION   CLOUDY    71  67  87 W5        29.92S
AUSTIN         CLOUDY    70  64  81 W3        29.93F
WACO           CLOUDY    69  66  90 NW7       29.91F
FORT WORTH     DRIZZLE   66  65  96 NE13      29.90S FOG
WICHITA FALLS  CLOUDY    67  61  81 N9        29.98F
LUBBOCK        CLEAR     56  49  77 NE8       30.12S
EL PASO        PTCLDY    68  51  54 SE7       30.16R
$$

...MARINE OBSERVATIONS...

STATION/POSITION TIME  SKY/WX   TEMP    WIND        PRES    VSBY  WAVE   SWELL
                                AIR SEA DIR/SP/G                  HT/PER HT/PER
                 (UTC)          (F)     (DEG/KT/KT) (MB)    (MI)  (FT/S) (FT/S)
PORT ARANSAS     0700            76 84  330/  9/ 12 1013.2F
BUOY 90 E PORT A 0650            82 85  240/ 14/ 17 1012.1R         3/ 6   2/ 8
BUOY 45 SE BAFFI 0650            80 85  150/  8/ 10 1012.4F         3/ 6   2/ 6
BUOY 200 E PT IS 0650            85 86  160/ 10/ 12 1013.4F         2/ 5   2/ 5
BUOY 15 E GALVES 0700            83 84  160/ 16/ 19 1012.4
$$



USA.gov is the U.S. government's official web portal to all federal, state and local government web resources and services.